STARLINK-4597, 53640

Orbit data source: Space-Track

STARLINK-4597, 53640 is a payload satellite owned by SpaceX/Seattle (US) in LEO that was launched on Sun, 28 Aug 2022 UTC via an FALCON 9 launch vehicle from the Air Force Eastern Test Range (AFETR). Payload-class satellites include a variety of spacecraft equipped with specific instruments for various scientific and technological missions. These include communications satellites like Starlink; space stations such as the ISS; scientific satellites like the Hubble; Earth observation satellites from companies like Planet Labs, Umbra, and HawkEye 360; GPS; miniature CubeSats for education and research; and military/defense satellites.

Loading next visibility...
Identifier
53640, 2022-104BE
Orbit
LEO
Country
Flag of USUS
Related business
Manufacturer
SpaceX/Seattle
Mission
Operational Commercial Communications
Bus & Motor
STARLINK, Unknown motor
Mass
300 kg wet, ~290 kg dry
Launch date (UTC)
2022-08-28 (4 years ago)
Launch vehicle
FALCON 9
Launch site
Air Force Eastern Test Range (AFETR)
Object type
Payload
Rocket body
Debris
Shape & HBR
Box + 1 Pan, 10.1 m
Radar Cross Section
13.562 m², Large (>1 m²)

Expand to show TLE details & history
Last TLE update: 10 hours ago

TLE from 10 hours ago
0 STARLINK-4597
1 53640U 22104BE  26127.01282725 -.00002105  00000-0 -11425-3 0  9998
2 53640  53.2180 322.0469 0001292  96.8987 263.2152 15.08830067205035
Epoch: 2026-05-07T00:18Z
TLE epoch observation values (Epoch: 2026-05-07T00:18:28.274Z)
Latitude
-0.00003°
Longitude
92.564°
Altitude
540.777 km
Speed
7.593 km/s
True Right ascension
21h 28m 11s
True Declination
0° 00' 00"
Sunlit
Object was in daylight at epoch
Visualization orbit readout
Latitude
Unknown
Longitude
Unknown
Altitude
Unknown
Speed
Unknown
Apparent Right ascension
Unknown
Apparent Declination
Unknown
Sunlit
N/A
Visualization observer readout
Local Sidereal Time
18:22:43
Azimuth
Unknown
Elevation
Unknown
Doppler factor
Unknown
Orbital elements
Apogee altitude
540.912 km
Perigee altitude
539.125 km
Semi-major axis
6,918.156 km
Eccentricity
0.00013
Inclination
53.218°
RAAN
322.0469°
Arg. of periapsis
96.8987°
True anomaly
263.2005°
Mean anomaly
263.2152°
Eccentric anomaly
263.20785°
Mean motion
3.77188 °/min
Orbital period
95.44 mins
BSTAR
-0.00011425
Loading maneuver chart data...
Computing Atmospheric mass density...
Loading historical data...
Loading historical data...
Loading historical data...
Loading historical data...
Loading historical data...
Loading historical data...
Loading historical data...

Documentation

Showing up to 5 results
|